{"data":{"norad_id":47171,"epoch":"2026-09-19T22:29:44.977632Z","epoch_age_seconds":70617,"freshness":"FRESH","line1":"1 47171U 20088BB  26262.93732613  .03963587  12074-4  95960-3 0  9991","line2":"2 47171  53.0290  36.8184 0008127 317.7717  42.2698 16.28571362322696","mean_motion":16.28571362,"eccentricity":0.0008127,"inclination_deg":53.029,"raan_deg":36.8184,"arg_perigee_deg":317.7717,"mean_anomaly_deg":42.2698,"bstar":0.0009596,"rev_number":32269,"period_min":88.421056245984,"perigee_km":191.03879983858,"apogee_km":201.72502287711,"semimajor_km":6574.5189113578,"source":"CELESTRAK","updated_at":"2026-09-20T09:00:38.588105Z"}}